Jackson, MN

8:01 AM CDT on September 19, 2017 (GMT -0500)
Jackson Municipal

Weather History for KMJQ - February, 2014

Change the Weather History Date:

Wednesday, February 5, 2014

  Actual Average Record
Temperature  
Mean Temperature 0 °F -  
Max Temperature 5 °F 27 °F 55 °F (2005)
Min Temperature -4 °F 10 °F -16 °F (2007)
Degree Days  
Heating Degree Days 64    
Moisture  
Dew Point -8 °F    
Average Humidity 68    
Maximum Humidity 78    
Minimum Humidity 61    
Precipitation  
Precipitation 0.00 in - - ()
Sea Level Pressure  
Sea Level Pressure 30.48 in    
Wind  
Wind Speed 16 mph (NW)    
Max Wind Speed 24 mph    
Max Gust Speed 29 mph    
Visibility 8 miles    
Events      
Averages and records for this station are not official NWS values.
T = Trace of Precipitation, MM = Missing Value Source: NWS Daily Summary

Daily Weather History Graph

Daily Weather History Graph

Search for Another Location

Airport or City:

Trip Planner

Search our weather history database for the weather conditions in past years. The results will help you decide how hot, cold, wet, or windy it might be!

Date:

Astronomy

Feb. 05, 2014 Rise Set
Actual Time 7:31 AM CST 5:36 PM CST
Civil Twilight 7:01 AM CST 6:06 PM CST
Nautical Twilight 6:27 AM CST 6:40 PM CST
Astronomical Twilight 5:54 AM CST 7:14 PM CST
Moon 10:33 AM CST (2/5) No Moon Set
Length of Visible Light 11h 05m
Length of Day
10h 04m
Waxing Crescent, 39% of the Moon is Illuminated
Feb 5
Waxing Crescent
Feb 6
First Quarter
Feb 14
Full
Feb 22
Last Quarter
Mar 1
New

Hourly Weather History & Observations

Time (CST) Temp. Windchill Dew Point Humidity Pressure Visibility Wind Dir Wind Speed Gust Speed Precip Events Conditions
12:12 AM 1.4 °F -17.6 °F -7.6 °F 66% 30.41 in 10.0 mi North 15.0 mph 21.9 mph N/A   Overcast
12:33 AM 1.4 °F -18.2 °F -7.6 °F 66% 30.41 in 10.0 mi North 16.1 mph 23.0 mph N/A   Overcast
12:52 AM 1.4 °F -19.4 °F -9.4 °F 61% 30.41 in 10.0 mi North 18.4 mph 24.2 mph N/A   Overcast
1:12 AM 1.4 °F -18.8 °F -7.6 °F 66% 30.42 in 10.0 mi North 17.3 mph 25.3 mph N/A   Overcast
1:33 AM 1.4 °F -18.8 °F -9.4 °F 61% 30.42 in 10.0 mi North 17.3 mph 25.3 mph N/A   Overcast
1:52 AM 1.4 °F -18.2 °F -9.4 °F 61% 30.43 in 10.0 mi North 16.1 mph 23.0 mph N/A   Overcast
2:12 AM 1.4 °F -16.9 °F -9.4 °F 61% 30.43 in 10.0 mi North 13.8 mph 28.8 mph N/A   Overcast
2:33 AM 1.4 °F -18.2 °F -9.4 °F 61% 30.44 in 10.0 mi North 16.1 mph 24.2 mph N/A   Overcast
2:52 AM 1.4 °F -16.9 °F -9.4 °F 61% 30.44 in 7.0 mi North 13.8 mph 23.0 mph N/A   Overcast
3:12 AM 1.4 °F -17.6 °F -7.6 °F 66% 30.44 in 7.0 mi North 15.0 mph 24.2 mph N/A   Overcast
3:33 AM -0.4 °F -20.5 °F -7.6 °F 72% 30.44 in 7.0 mi North 16.1 mph 23.0 mph N/A   Overcast
3:52 AM -0.4 °F -19.9 °F -7.6 °F 72% 30.44 in 7.0 mi North 15.0 mph - N/A   Overcast
4:12 AM -0.4 °F -19.9 °F -9.4 °F 66% 30.44 in 7.0 mi North 15.0 mph 21.9 mph N/A   Overcast
4:33 AM -0.4 °F -18.4 °F -9.4 °F 66% 30.44 in 7.0 mi North 12.7 mph 19.6 mph N/A   Overcast
4:52 AM -0.4 °F -20.5 °F -9.4 °F 66% 30.44 in 7.0 mi North 16.1 mph 21.9 mph N/A   Overcast
5:12 AM -0.4 °F -18.4 °F -7.6 °F 72% 30.45 in 5.0 mi North 12.7 mph - N/A   Haze
5:33 AM -0.4 °F -19.2 °F -7.6 °F 72% 30.45 in 5.0 mi North 13.8 mph 18.4 mph N/A   Haze
5:52 AM -0.4 °F -19.2 °F -9.4 °F 66% 30.45 in 7.0 mi North 13.8 mph 23.0 mph N/A   Overcast
6:12 AM -0.4 °F -20.5 °F -7.6 °F 72% 30.46 in 10.0 mi NNW 16.1 mph 25.3 mph N/A   Overcast
6:33 AM -0.4 °F -19.2 °F -7.6 °F 72% 30.45 in 10.0 mi NNW 13.8 mph 27.6 mph N/A   Overcast
6:53 AM -0.4 °F -20.5 °F -7.6 °F 72% 30.46 in 10.0 mi NNW 16.1 mph 24.2 mph N/A   Overcast
7:12 AM -0.4 °F -19.2 °F -7.6 °F 72% 30.46 in 5.0 mi NNW 13.8 mph 26.5 mph N/A   Haze
7:33 AM -0.4 °F -20.5 °F -7.6 °F 72% 30.47 in 7.0 mi NNW 16.1 mph 24.2 mph N/A   Overcast
7:52 AM -0.4 °F -20.5 °F -7.6 °F 72% 30.47 in 10.0 mi NNW 16.1 mph 24.2 mph N/A   Overcast
8:13 AM 1.4 °F -18.8 °F -7.6 °F 66% 30.49 in 10.0 mi NNW 17.3 mph 24.2 mph N/A   Overcast
8:33 AM 1.4 °F -18.2 °F -5.8 °F 72% 30.49 in 10.0 mi NNW 16.1 mph 23.0 mph N/A   Overcast
8:52 AM 1.4 °F -19.9 °F -5.8 °F 72% 30.49 in 5.0 mi NNW 19.6 mph 23.0 mph N/A   Haze
9:13 AM 1.4 °F -19.4 °F -5.8 °F 72% 30.50 in 7.0 mi NW 18.4 mph 26.5 mph N/A   Overcast
9:33 AM 1.4 °F -19.9 °F -5.8 °F 72% 30.50 in 10.0 mi NNW 19.6 mph 24.2 mph N/A   Mostly Cloudy
9:52 AM 1.4 °F -20.5 °F -5.8 °F 72% 30.50 in 10.0 mi NNW 20.7 mph 25.3 mph N/A   Mostly Cloudy
10:13 AM 1.4 °F -21.9 °F -5.8 °F 72% 30.50 in 10.0 mi NW 24.2 mph 28.8 mph N/A   Overcast
10:33 AM 3.2 °F -16.5 °F -5.8 °F 66% 30.51 in 10.0 mi NNW 17.3 mph 26.5 mph N/A   Mostly Cloudy
10:52 AM 3.2 °F -19.0 °F -5.8 °F 66% 30.51 in 10.0 mi NNW 23.0 mph 28.8 mph N/A   Mostly Cloudy
11:13 AM 3.2 °F -17.1 °F -5.8 °F 66% 30.51 in 10.0 mi NNW 18.4 mph 28.8 mph N/A   Mostly Cloudy
11:33 AM 3.2 °F -18.1 °F -5.8 °F 66% 30.51 in 10.0 mi NW 20.7 mph 26.5 mph N/A   Scattered Clouds
11:52 AM 3.2 °F -18.1 °F -5.8 °F 66% 30.51 in 7.0 mi NW 20.7 mph 25.3 mph N/A   Mostly Cloudy
12:13 PM 3.2 °F -19.0 °F -5.8 °F 66% 30.50 in 7.0 mi NW 23.0 mph 28.8 mph N/A   Mostly Cloudy
12:33 PM 3.2 °F -18.1 °F -5.8 °F 66% 30.50 in 7.0 mi NW 20.7 mph 28.8 mph N/A   Mostly Cloudy
12:52 PM 3.2 °F -18.1 °F -5.8 °F 66% 30.49 in 4.0 mi NW 20.7 mph 25.3 mph N/A   Haze
1:13 PM 3.2 °F -18.1 °F -5.8 °F 66% 30.49 in 7.0 mi NNW 20.7 mph 26.5 mph N/A   Mostly Cloudy
1:33 PM 3.2 °F -18.6 °F -5.8 °F 66% 30.49 in 3.0 mi NW 21.9 mph 25.3 mph N/A   Haze
1:52 PM 5.0 °F -16.7 °F -5.8 °F 61% 30.49 in 7.0 mi NW 23.0 mph 27.6 mph N/A   Mostly Cloudy
2:13 PM 3.2 °F -18.1 °F -5.8 °F 66% 30.48 in 2.5 mi NNW 20.7 mph 26.5 mph N/A   Haze
2:32 PM 3.2 °F -19.0 °F -5.8 °F 66% 30.48 in 4.0 mi NNW 23.0 mph 26.5 mph N/A   Haze
2:53 PM 5.0 °F -14.7 °F -5.8 °F 61% 30.48 in 7.0 mi NW 18.4 mph 23.0 mph N/A   Mostly Cloudy
3:12 PM 3.2 °F -17.6 °F -5.8 °F 66% 30.48 in 10.0 mi NW 19.6 mph 25.3 mph N/A   Mostly Cloudy
3:32 PM 3.2 °F -17.6 °F -5.8 °F 66% 30.49 in 4.0 mi NW 19.6 mph 28.8 mph N/A   Haze
3:53 PM 3.2 °F -17.1 °F -7.6 °F 61% 30.49 in 10.0 mi NW 18.4 mph - N/A   Clear
4:12 PM 3.2 °F -18.1 °F -5.8 °F 66% 30.50 in 2.5 mi NW 20.7 mph 27.6 mph N/A   Haze
4:32 PM 3.2 °F -18.1 °F -5.8 °F 66% 30.51 in 7.0 mi NW 20.7 mph 24.2 mph N/A   Mostly Cloudy
4:53 PM 1.4 °F -18.8 °F -7.6 °F 66% 30.51 in 5.0 mi NW 17.3 mph 23.0 mph N/A   Haze
5:12 PM 1.4 °F -19.4 °F -7.6 °F 66% 30.50 in 10.0 mi NW 18.4 mph - N/A   Scattered Clouds
5:32 PM 1.4 °F -15.3 °F -7.6 °F 66% 30.51 in 10.0 mi NW 11.5 mph - N/A   Scattered Clouds
5:53 PM 1.4 °F -14.5 °F -7.6 °F 66% 30.51 in 10.0 mi WNW 10.4 mph - N/A   Mostly Cloudy
6:12 PM 1.4 °F -13.5 °F -7.6 °F 66% 30.52 in 10.0 mi WNW 9.2 mph - N/A   Scattered Clouds
6:32 PM -0.4 °F -15.7 °F -7.6 °F 72% 30.52 in 10.0 mi WNW 9.2 mph - N/A   Clear
6:53 PM -0.4 °F -16.7 °F -7.6 °F 72% 30.52 in 10.0 mi WNW 10.4 mph - N/A   Clear
7:12 PM -0.4 °F -17.6 °F -7.6 °F 72% 30.52 in 10.0 mi WNW 11.5 mph - N/A   Mostly Cloudy
7:32 PM 1.4 °F -17.6 °F -7.6 °F 66% 30.51 in 10.0 mi WNW 15.0 mph - N/A   Scattered Clouds
7:53 PM -0.4 °F -19.2 °F -7.6 °F 72% 30.51 in 10.0 mi NW 13.8 mph 18.4 mph N/A   Scattered Clouds
8:12 PM -0.4 °F -17.6 °F -7.6 °F 72% 30.51 in 10.0 mi NW 11.5 mph - N/A   Clear
8:32 PM -0.4 °F -17.6 °F -7.6 °F 72% 30.51 in 10.0 mi NW 11.5 mph - N/A   Clear
8:53 PM -2.2 °F -19.9 °F -9.4 °F 71% 30.51 in 10.0 mi NW 11.5 mph - N/A   Clear
9:12 PM -2.2 °F -18.9 °F -9.4 °F 71% 30.51 in 10.0 mi NW 10.4 mph - N/A   Clear
9:33 PM -4.0 °F -20.2 °F -9.4 °F 78% 30.50 in 10.0 mi NW 9.2 mph - N/A   Clear
9:52 PM -2.2 °F -18.9 °F -9.4 °F 71% 30.49 in 10.0 mi NW 10.4 mph - N/A   Clear
10:12 PM -4.0 °F -23.0 °F -9.4 °F 78% 30.49 in 10.0 mi WNW 12.7 mph - N/A   Clear
10:33 PM -2.2 °F -19.9 °F -9.4 °F 71% 30.49 in 10.0 mi WNW 11.5 mph - N/A   Clear
10:52 PM -4.0 °F -20.2 °F -9.4 °F 78% 30.49 in 10.0 mi West 9.2 mph - N/A   Clear
11:12 PM -4.0 °F -21.2 °F -11.2 °F 71% 30.49 in 10.0 mi West 10.4 mph - N/A   Clear
11:33 PM -4.0 °F -20.2 °F -11.2 °F 71% 30.48 in 10.0 mi West 9.2 mph - N/A   Clear
11:52 PM -4.0 °F -20.2 °F -11.2 °F 71% 30.48 in 10.0 mi West 9.2 mph - N/A   Clear